Details From KWJF - General Wm J Fox Airfield
To KBUR - BOB HOPE
Flight Number -
Tags generated
Created
Modified
Stats Distance 33 nm / 62 km
Max Altitude 4,100 ft / 1,250 m
Waypoints 3
Social Downloads 2
Likes 0
Share VATSIM

Download

Looking for another format? Having issues loading an existing format? Contact us
Advertisement - Login to hide

Notes

Basic altitude profile: - Ascent Rate: 2500ft/min - Ascent Speed: 250kts - Cruise Altitude: 8000ft - Cruise Speed: 200kts - Descent Rate: 1500ft/min - Descent Speed: 250kts Options: - Use NATs: no - Use PACOTS: no - Use low airways: yes - Use high airways: no

Route

KWJF BOGET KBUR

ID Type Via Altitude Latitude Longitude Leg Dist Tot Dist Heading (true) Name
O KWJF APT - 0 ft / 0 m 34.74105˚ -118.21864˚ - 0 nm - General Wm J Fox Airfield
BOGET FIX - 4,100 ft / 1,250 m 34.51421˚ -118.25151˚ 13 nm 13 nm 187° / 187° -
O KBUR APT - 0 ft / 0 m 34.20048˚ -118.35877˚ 19 nm 33 nm 196° / 196° BOB HOPE

Altitude Profile

Advertisement - Login to hide

KWJF

Details ICAO KWJF
Name General Wm J Fox Airfield
Region United States
Timezone America/Los_Angeles (UTC-8.0)
Stats Elevation 2,351 ft / 717 m (AMSL)
Location 34.741048° -118.218641°
Runways 1
Magnetic Variation 12.123° E

METAR

KWJF 172256Z 06010KT 10SM CLR 13/M11 A3006 RMK AO2 SLP183 T01331106

Decode

TAF

KWJF 171733Z 1718/1818 09015G25KT P6SM SKC FM172200 06010KT P6SM SKC FM180300 VRB03KT P6SM SKC

Decode

Departure Runways

ID Width Length Bearing (true) Bearing (mag) Surface Threshold Offset Overrun Length
06 151 ft / 46 m 7,188 ft / 2,191 m 71.98° 59.86° Asphalt 0 ft / 0 m 200 ft / 61 m
24 151 ft / 46 m 7,188 ft / 2,191 m 251.99° 239.87° Asphalt 0 ft / 0 m 200 ft / 61 m

KBUR

Details ICAO KBUR (BUR)
Name BOB HOPE
Region United States
Timezone America/Los_Angeles (UTC-8.0)
Stats Elevation 778 ft / 237 m (AMSL)
Location 34.200475° -118.358767°
Runways 2
Magnetic Variation 12.046° E

METAR

KBUR 172253Z 02011KT 10SM CLR 21/M06 A2993 RMK AO2 SLP125 T02111061

Decode

TAF

TAF AMD KBUR 171928Z 1719/1818 34010G20KT P6SM SKC FM172200 35010KT P6SM SKC FM180100 VRB03KT P6SM SKC

Decode

Destination Runways

ID Width Length Bearing (true) Bearing (mag) Surface Threshold Offset Overrun Length
08 151 ft / 46 m 5,835 ft / 1,779 m 90.92° 78.87° Asphalt 0 ft / 0 m 259 ft / 79 m
15 151 ft / 46 m 6,962 ft / 2,122 m 167.12° 155.07° Asphalt 909 ft / 277 m 0 ft / 0 m
26 151 ft / 46 m 5,835 ft / 1,779 m 270.93° 258.88° Asphalt 0 ft / 0 m 253 ft / 77 m
33 151 ft / 46 m 6,962 ft / 2,122 m 347.12° 335.07° Asphalt 351 ft / 107 m 0 ft / 0 m

Approach Navaids

Runway Type Ident Frequency Range Bearing (true) Bearing (mag) Slope Elevation
08 Localiser IBUR 109.50 MHz 18 nm / 33 km 90.84° 78.79° - 726 ft / 221 m (AMSL)
08 Glidescope IBUR 109.50 MHz 10 nm / 19 km 90.93° 78.88° 3.00° 720 ft / 219 m (AMSL)

Popular Alternatives